Flag Weather past 2 weeks in Grand Junction, Colorado, U.S.A.

Now
34 °F

Light rain. Overcast.


Feels Like: 29 °F
Forecast: 26 / 41 °F
Wind: 6 mph from Northwest

Location: Walker Field

Current Time: Nov 22, 2014 at 11:22:34 PM

Latest Report: Nov 22, 2014 at 10:53 PM


Visibility: 8 mi

Pressure: 29.81 "Hg

Humidity: 97%

Dew point: 33 °F

Location of Grand JunctionLocation

Historic Weather in Grand Junction — Graph

°F

Grand Junction temperature yesterday

Maximum temperature yesterday: 51 °F (at 2:53 PM)
Minimum temperature yesterday: 20 °F (at 4:53 AM)
Average temperature yesterday: 33 °F

Past Weeks' High & Low Weather Summary

 TemperatureHumidityPressure
High62 °F (Nov 8, 1:53 PM)100% (Nov 22, 8:53 PM)30.55 "Hg (Nov 22, 8:53 PM)
Low12 °F (Nov 17, 6:53 AM)17% (Nov 10, 3:53 PM)29.57 "Hg (Nov 10, 11:53 AM)
Average33 °F55%30.12 "Hg
* Reported Nov 7 9:53 PM — Nov 22 9:53 PM, Grand Junction, Weather by CustomWeather, © 2014

Note: Actual official high and low records may vary slightly from our data, if they occured in-between our weather recording intervals... More about our weather records

Advertising

Grand Junction weather history for previous 24 hours

 ConditionsComfort  
Time TempWeatherWind HumidityBarometerVisibility
9:53 PM
Nov 22
33 °FOvercast.3 mph100%29.78 "Hg10 mi
8:53 PM32 °FPartly cloudy.No wind100%29.81 "Hg10 mi
7:53 PM35 °FMostly cloudy.3 mph92%29.84 "Hg10 mi
6:53 PM35 °FPassing clouds.5 mph92%29.84 "Hg10 mi
5:53 PM36 °FLight rain. Partly cloudy.6 mph89%29.88 "Hg10 mi
4:53 PM40 °FMore clouds than sun.6 mph51%29.90 "Hg10 mi
3:53 PM42 °FOvercast.3 mph43%29.88 "Hg10 mi
2:53 PM41 °FMostly cloudy.6 mph47%29.89 "Hg10 mi
1:53 PM40 °FPartly sunny.12 mph47%29.89 "Hg10 mi
12:53 PM43 °FSunny.8 mph42%29.89 "Hg10 mi
11:53 AM42 °FSunny.9 mph45%29.95 "Hg10 mi
10:53 AM44 °FSunny.12 mph37%29.99 "Hg10 mi
9:53 AM39 °FSunny.14 mph46%30.03 "Hg10 mi
8:53 AM33 °FSunny.9 mph56%30.07 "Hg10 mi
7:53 AM24 °FSunny.3 mph75%30.14 "Hg10 mi
6:53 AM22 °FClear.3 mph75%30.15 "Hg10 mi
5:53 AM22 °FClear.3 mph75%30.12 "Hg10 mi
4:53 AM21 °FClear.8 mph78%30.10 "Hg10 mi
3:53 AM22 °FClear.6 mph75%30.10 "Hg10 mi
2:53 AM26 °FClear.3 mph66%30.08 "Hg10 mi
1:53 AM29 °FClear.6 mph58%30.07 "Hg10 mi
12:53 AM31 °FClear.5 mph57%30.07 "Hg10 mi
11:53 PM
Nov 21
26 °FClear.8 mph66%30.09 "Hg10 mi
Weather by CustomWeather, © 2014

See weather overviewHow to use our weather pages